Broomfield, CO

9:00 PM MST on November 17, 2017 (GMT -0700)
Jeffco

Weather History for KBJC - June, 2012

Change the Weather History Date:

Tuesday, June 19, 2012

  Actual Average Record
Temperature  
Mean Temperature 83 °F -  
Max Temperature 95 °F 78 °F 98 °F (1989)
Min Temperature 71 °F 54 °F 42 °F (2004)
Cooling Degree Days 18    
Growing Degree Days 33 (Base 50)    
Moisture  
Dew Point 16 °F    
Average Humidity 9    
Maximum Humidity 22    
Minimum Humidity 4    
Precipitation  
Precipitation 0.00 in - - ()
Sea Level Pressure  
Sea Level Pressure 29.74 in    
Wind  
Wind Speed 11 mph (NNE)    
Max Wind Speed 24 mph    
Max Gust Speed 40 mph    
Visibility 11 miles    
Events      
Averages and records for this station are not official NWS values.
T = Trace of Precipitation, MM = Missing Value Source: NWS Daily Summary

Daily Weather History Graph

Daily Weather History Graph

Search for Another Location

Airport or City:

Trip Planner

Search our weather history database for the weather conditions in past years. The results will help you decide how hot, cold, wet, or windy it might be!

Date:

Astronomy

Jun. 19, 2012 Rise Set
Actual Time 5:31 AM MDT 8:32 PM MDT
Civil Twilight 4:58 AM MDT 9:04 PM MDT
Nautical Twilight 4:17 AM MDT 9:46 PM MDT
Astronomical Twilight 3:28 AM MDT 10:35 PM MDT
Moon 5:38 AM MDT (6/19) 8:38 PM MDT (6/19)
Length of Visible Light 16h 06m
Length of Day
15h 00m
New Moon, 0% of the Moon is Illuminated
Jun 19
New Moon
Jun 26
First Quarter
Jul 3
Full
Jul 10
Last Quarter
Jul 18
New

Hourly Weather History & Observations

Time (MDT) Temp. Dew Point Humidity Pressure Visibility Wind Dir Wind Speed Gust Speed Precip Events Conditions
12:11 AM 82.4 °F 8.6 °F 6% 29.69 in 10.0 mi West 23.0 mph 26.5 mph N/A   Clear
12:31 AM 84.2 °F 8.6 °F 6% 29.69 in 10.0 mi West 24.2 mph 40.3 mph N/A   Clear
12:51 AM 82.4 °F 10.4 °F 7% 29.70 in 10.0 mi West 18.4 mph 28.8 mph N/A   Clear
1:11 AM 82.4 °F 8.6 °F 6% 29.71 in 10.0 mi SSW 9.2 mph 23.0 mph N/A   Clear
1:31 AM 80.6 °F 8.6 °F 6% 29.71 in 10.0 mi ENE 8.1 mph - N/A   Clear
1:51 AM 78.8 °F 10.4 °F 7% 29.71 in 10.0 mi East 10.4 mph 16.1 mph N/A   Clear
2:10 AM 80.6 °F 10.4 °F 7% 29.71 in 10.0 mi ENE 10.4 mph - N/A   Clear
2:31 AM 80.6 °F 10.4 °F 7% 29.71 in 10.0 mi East 8.1 mph - N/A   Clear
2:51 AM 77.0 °F 14.0 °F 9% 29.72 in 10.0 mi Calm Calm - N/A   Clear
3:11 AM 80.6 °F 8.6 °F 6% 29.72 in 10.0 mi ESE 3.5 mph - N/A   Clear
3:31 AM 77.0 °F 10.4 °F 8% 29.72 in 10.0 mi Calm Calm - N/A   Clear
3:51 AM 82.4 °F 5.0 °F 5% 29.73 in 10.0 mi Calm Calm - N/A   Clear
4:11 AM 78.8 °F 6.8 °F 6% 29.72 in 10.0 mi Calm Calm - N/A   Clear
4:31 AM 80.6 °F 6.8 °F 6% 29.73 in 10.0 mi Calm Calm - N/A   Clear
4:51 AM 75.2 °F 10.4 °F 8% 29.72 in 10.0 mi Calm Calm - N/A   Clear
5:11 AM 73.4 °F 12.2 °F 10% 29.73 in 10.0 mi West 4.6 mph - N/A   Clear
5:31 AM 77.0 °F 12.2 °F 9% 29.73 in 10.0 mi WSW 3.5 mph - N/A   Clear
5:49 AM 73.4 °F 14.0 °F 10% 29.73 in 30.0 mi Calm Calm - N/A   Clear
5:50 AM 71.6 °F 14.0 °F 11% 29.73 in 10.0 mi Calm Calm - N/A   Clear
6:47 AM 75.2 °F 12.2 °F 9% 29.75 in 40.0 mi SE 6.9 mph - N/A   Clear
7:47 AM 77.0 °F 19.4 °F 12% 29.75 in 40.0 mi Calm Calm - N/A   Clear
8:36 AM 84.2 °F 17.6 °F 8% 29.76 in 40.0 mi West 13.8 mph 23.0 mph N/A   Clear
8:55 AM 87.8 °F 3.2 °F 4% 29.76 in 40.0 mi West 20.7 mph 25.3 mph N/A   Clear
10:56 AM 86.0 °F 21.2 °F 9% 29.79 in 40.0 mi NE 13.8 mph - N/A   Clear
11:47 AM 89.6 °F 19.4 °F 8% 29.79 in 30.0 mi ENE 8.1 mph 17.3 mph N/A   Clear
12:47 PM 91.4 °F 15.8 °F 6% 29.77 in 30.0 mi East 9.2 mph - N/A   Partly Cloudy
1:48 PM 93.2 °F 15.8 °F 6% 29.77 in 30.0 mi NE 16.1 mph - N/A   Partly Cloudy
2:57 PM 93.2 °F 15.8 °F 6% 29.75 in 30.0 mi East 11.5 mph 18.4 mph N/A   Partly Cloudy
3:53 PM 95.0 °F 12.2 °F 5% 29.73 in 30.0 mi East 11.5 mph 19.6 mph N/A   Partly Cloudy
5:47 PM 93.2 °F 17.6 °F 6% 29.72 in 30.0 mi NE 16.1 mph - N/A   Scattered Clouds
6:53 PM 87.8 °F 26.6 °F 11% 29.72 in 30.0 mi ENE 16.1 mph 24.2 mph N/A   Mostly Cloudy
7:54 PM 84.2 °F 28.4 °F 13% 29.73 in 25.0 mi NE 9.2 mph - N/A   Mostly Cloudy
8:48 PM 82.4 °F 30.2 °F 15% 29.76 in 20.0 mi NW 9.2 mph - N/A   Mostly Cloudy
9:53 PM 80.6 °F 32.0 °F 17% 29.77 in 20.0 mi NNW 9.2 mph - N/A   Mostly Cloudy
11:10 PM 77.0 °F 33.8 °F 21% 29.78 in 10.0 mi NNW 9.2 mph - N/A   Clear
11:30 PM 77.0 °F 33.8 °F 21% 29.79 in 10.0 mi NNW 10.4 mph - N/A   Clear
11:50 PM 75.2 °F 33.8 °F 22% 29.80 in 10.0 mi NNW 12.7 mph - N/A   Clear